Wind_Speed
100 99 99 99 99 99 99 99 99 98 97 96 95 93 92 91 90 89 87 85 84 83 85 87 88 89 89 88 88 89 90 90 91 92 93 95 96 99 101 101 101 100 99 98 97 97 98 98 98 99 100 100 101 103 106 108 111 112 111 111 112 113 113 112 110 109 108 107 105 104 102 101 100 97 95 94 93 91 91 91 91 90 91 92 91
101 100 100 99 99 99 99 99 99 99 99 99 98 98 97 96 95 94 92 90 89 87 87 88 89 90 91 91 91 91 91 91 92 93 94 95 97 99 101 103 104 103 101 99 100 100 100 100 100 100 100 100 101 102 103 104 107 108 108 109 111 113 114 114 112 111 109 108 108 106 105 103 102 100 98 96 95 94 93 93 93 93 92 92 92
101 101 100 99 99 99 99 99 99 99 99 99 99 99 99 99 98 98 97 95 94 93 91 91 91 91 92 93 94 93 93 93 94 95 95 95 97 99 101 103 105 105 104 102 102 102 103 102 102 101 101 101 101 102 102 102 103 106 107 107 109 111 113 114 114 113 112 111 110 108 107 105 103 102 101 100 99 98 97 96 95 95 94 94 95
103 102 101 100 100 99 99 99 99 99 98 98 98 99 99 100 100 100 100 99 98 97 96 96 95 94 94 95 95 96 96 96 96 96 97 97 98 99 101 103 105 106 106 105 104 104 105 105 104 103 102 102 102 102 102 102 103 104 106 106 107 109 110 112 113 115 115 114 112 111 109 108 105 104 104 105 103 102 100 99 97 96 96 95 97
103 102 102 101 100 99 99 99 99 99 99 98 98 98 98 99 100 101 101 102 101 101 100 100 100 99 98 98 98 98 99 99 99 99 99 100 100 100 101 103 105 106 106 106 106 106 106 106 106 105 104 104 104 104 103 103 103 104 106 107 107 107 108 109 111 114 115 116 115 113 111 110 108 107 108 108 107 104 103 102 100 98 97 97 97
101 100 100 99 99 99 99 99 99 99 99 99 99 99 99 99 99 100 101 102 103 103 103 103 103 103 103 102 101 101 101 102 102 103 103 102 103 102 102 104 106 107 107 107 107 107 108 108 108 107 107 106 106 106 105 105 105 105 106 107 107 106 106 107 108 111 114 116 117 115 114 112 111 112 111 109 109 108 106 105 104 102 101 100 99
100 100 99 99 99 98 98 98 98 98 98 98 99 99 99 99 100 100 101 102 103 104 105 105 105 105 106 106 106 105 105 105 105 106 106 106 106 105 105 105 106 108 109 108 107 107 109 110 110 110 109 108 109 108 108 107 107 107 108 107 107 106 105 105 106 109 112 114 116 118 117 115 114 115 113 112 111 111 110 109 107 106 105 104 103
99 98 98 98 98 98 98 98 98 98 98 98 99 99 99 100 100 100 101 101 102 104 105 106 107 108 108 108 109 109 109 109 109 109 109 109 109 109 108 108 108 108 110 110 109 108 109 111 112 111 111 111 111 111 110 110 109 110 110 109 108 106 105 105 106 108 109 111 114 117 119 118 117 117 116 115 114 112 112 112 111 110 109 108 107
99 99 98 98 97 97 98 98 98 98 98 99 99 99 99 99 100 100 101 102 102 103 105 106 107 108 109 110 111 111 112 112 113 113 113 113 112 112 112 112 111 111 111 112 111 111 110 111 112 113 113 113 113 113 112 112 112 112 111 111 110 108 106 106 107 108 108 109 112 115 118 120 120 119 118 117 116 115 115 115 115 115 113 112 112
98 97 97 96 96 96 96 97 98 98 99 99 99 99 99 99 100 100 101 102 103 104 105 106 107 108 110 111 112 112 113 114 115 116 117 117 116 116 116 116 115 114 114 114 114 114 113 113 113 113 114 115 115 115 114 114 114 113 113 112 111 110 109 108 108 107 108 109 111 113 115 118 120 121 120 120 119 119 118 118 119 119 117 117 116
94 92 92 91 91 92 93 94 94 95 96 97 98 98 99 100 100 100 100 100 102 104 106 107 108 109 110 111 112 113 114 115 117 118 119 120 120 120 120 120 119 118 118 118 118 117 116 116 115 115 116 117 117 117 116 116 116 115 115 114 112 111 111 111 110 109 109 109 110 112 112 115 118 121 123 124 123 122 121 121 121 121 121 120 120
90 88 86 86 86 88 89 90 90 91 91 93 94 95 97 99 100 100 100 100 101 103 105 107 108 110 111 112 112 113 114 115 116 118 120 121 122 123 123 123 123 122 122 122 122 121 120 119 118 118 118 119 120 120 119 118 118 117 117 116 115 113 113 113 113 112 111 109 110 111 112 113 115 119 123 126 126 126 125 124 124 124 124 123 123
86 85 84 84 83 84 86 87 87 88 88 89 90 91 93 96 98 99 100 100 101 102 103 105 107 109 111 113 114 114 115 115 116 118 119 121 123 124 125 126 126 126 126 126 126 125 124 123 123 122 122 122 123 123 122 121 120 119 119 118 117 116 115 115 115 114 113 111 110 111 112 113 113 116 120 124 127 129 129 128 127 127 126 126 127
85 84 83 82 81 81 82 83 84 86 86 87 87 88 90 92 95 96 98 99 101 102 102 103 105 107 110 112 115 116 116 117 117 117 118 120 122 124 125 127 128 129 129 129 130 129 128 127 127 126 126 126 127 126 125 124 123 122 121 121 120 119 117 117 117 116 115 114 113 113 113 113 113 114 117 121 125 128 130 131 131 130 129 129 129
83 81 79 78 77 77 77 79 80 82 84 85 85 86 87 89 91 92 94 97 99 101 102 103 104 105 107 110 113 115 117 118 118 119 119 120 121 122 124 126 128 129 130 132 133 133 132 130 130 130 130 130 130 130 129 127 126 125 124 123 122 122 120 119 118 118 118 117 116 115 115 114 114 115 116 118 121 125 128 131 134 134 133 132 131
79 76 74 73 72 72 72 73 75 77 80 83 84 85 85 86 87 88 90 93 96 98 100 102 103 104 105 107 110 113 115 117 119 120 121 121 121 122 123 124 126 128 130 132 134 135 135 134 133 133 134 134 134 134 133 131 130 129 128 127 126 124 123 122 121 120 120 119 119 118 117 116 115 115 116 117 119 122 125 128 132 135 136 135 134
76 74 72 70 69 68 68 68 70 72 74 78 81 83 84 84 85 85 87 89 92 95 97 100 102 103 104 105 107 110 112 115 117 119 121 122 123 123 124 124 125 126 127 130 132 135 136 135 135 136 137 138 138 137 136 135 133 132 131 131 130 128 127 125 124 123 123 122 122 121 120 118 117 117 117 117 119 120 122 124 127 131 135 137 137
74 72 70 69 68 67 66 66 67 68 69 72 75 78 81 83 83 83 84 86 88 91 94 97 99 101 103 104 105 107 109 111 114 116 119 122 123 125 125 125 125 126 126 128 129 132 134 135 136 137 138 140 140 139 139 138 136 134 134 134 133 132 130 129 128 126 125 124 124 123 122 120 120 119 119 118 119 120 122 122 124 127 131 134 137
74 71 69 68 67 66 66 65 65 66 67 69 71 73 76 79 81 82 83 84 85 87 90 93 97 99 100 102 104 105 107 109 111 113 115 119 122 124 125 126 126 127 128 128 129 131 133 134 135 136 137 140 141 141 140 140 140 137 136 135 135 135 134 133 131 130 128 127 126 126 125 123 122 122 121 120 120 121 122 122 123 124 127 130 133
73 71 68 67 66 66 66 65 64 65 66 67 68 70 72 74 77 79 81 83 84 85 87 89 92 95 98 100 101 103 104 106 108 110 112 115 118 121 123 125 127 128 130 131 131 132 133 134 134 135 137 138 141 142 141 140 141 141 139 136 134 135 136 136 134 132 131 129 128 128 127 126 125 125 124 123 123 122 122 123 123 124 126 127 129
72 70 68 66 65 64 64 64 64 65 65 66 67 68 70 71 73 75 78 80 83 84 85 86 88 91 94 97 99 100 102 103 105 107 109 111 114 116 119 122 125 128 130 131 132 133 133 134 135 135 136 138 139 141 141 140 140 142 142 140 135 133 134 136 136 134 133 131 130 130 129 128 127 127 127 126 125 124 123 124 124 124 125 126 127
72 70 68 66 65 63 62 62 63 64 65 65 66 67 68 69 71 73 75 77 79 82 84 85 87 88 91 93 95 97 98 100 102 104 106 108 109 112 114 117 121 124 127 129 131 132 132 133 134 135 136 138 139 140 140 140 139 140 142 142 138 134 133 134 135 135 134 133 132 131 130 130 130 129 128 128 127 127 126 124 124 124 124 125 126
73 70 68 66 64 62 61 60 60 61 62 64 65 66 66 67 69 70 72 74 76 78 80 83 85 86 88 90 92 94 96 97 99 101 103 104 106 107 109 112 116 119 122 125 127 129 131 132 133 134 135 136 138 139 140 140 139 139 140 141 140 137 133 132 133 134 134 133 133 132 131 132 132 131 130 129 129 129 128 126 125 125 125 125 126
74 72 70 67 65 63 61 60 59 59 59 61 62 63 64 66 67 68 69 71 73 75 77 79 81 83 85 87 89 91 93 95 96 98 99 101 103 104 105 108 111 115 118 120 122 125 128 129 131 132 133 134 135 137 138 139 139 139 138 139 139 138 135 132 132 133 133 132 132 132 132 132 133 133 131 130 130 129 129 128 127 126 126 125 126
74 73 71 69 67 65 63 61 60 59 58 58 59 60 61 62 64 66 67 68 70 72 73 76 78 80 82 84 86 88 90 91 93 95 97 98 100 101 102 104 107 110 114 117 118 120 122 125 127 129 130 132 133 133 134 135 136 137 137 137 138 137 135 133 132 132 131 130 130 131 132 132 133 133 132 131 131 130 130 129 129 128 127 126 127
73 73 72 70 68 65 64 62 61 60 59 58 57 58 59 59 60 62 63 66 68 69 70 72 74 76 78 81 83 84 86 88 90 92 93 95 97 99 101 102 104 106 109 112 115 117 118 119 121 124 126 128 130 131 131 132 132 133 134 134 135 135 134 133 132 132 132 130 128 129 130 132 132 133 132 131 131 131 130 130 130 129 128 128 128
71 71 71 70 68 66 64 62 61 60 60 60 59 58 58 57 57 58 60 62 64 66 68 69 71 72 74 77 78 80 82 84 87 89 90 92 93 95 98 100 102 104 105 108 111 113 115 116 117 119 121 123 125 127 128 129 130 131 132 132 132 133 133 132 131 132 133 131 129 128 129 131 132 132 131 131 131 131 131 130 130 130 130 130 130
70 69 69 68 67 66 65 63 62 60 59 60 60 59 59 57 57 57 57 58 59 61 63 66 67 69 70 72 74 76 78 81 83 86 88 89 90 92 94 96 98 100 102 104 106 108 110 112 113 115 116 118 120 122 124 125 127 128 129 130 130 130 131 131 131 131 132 132 131 129 128 130 132 132 131 131 131 131 131 130 130 130 130 131 131
69 68 67 65 64 63 63 63 62 61 59 59 59 59 59 58 58 57 56 56 56 57 59 61 63 65 67 69 71 73 75 78 80 82 84 86 87 89 91 93 94 96 98 100 102 104 106 108 110 111 112 113 114 115 118 121 123 125 127 128 128 129 129 129 130 130 130 131 132 131 130 130 132 132 132 131 131 131 131 130 130 130 130 131 131
71 69 67 65 63 62 61 61 61 61 60 59 58 58 58 58 58 57 56 55 55 55 56 58 59 61 63 65 68 70 72 74 76 79 81 83 85 86 88 90 91 93 94 96 97 99 101 103 105 107 108 109 110 111 113 115 118 121 124 125 126 126 127 127 127 128 128 128 129 131 131 131 132 132 132 132 131 131 130 130 130 130 131 131 132
72 70 68 67 66 64 62 61 61 61 61 60 59 58 58 57 56 56 56 55 54 54 55 55 56 58 60 62 64 67 69 71 73 75 78 80 82 83 85 86 87 89 91 92 94 95 97 98 100 102 104 105 107 109 111 112 114 116 119 121 122 123 124 124 124 124 125 126 127 128 130 132 133 133 132 132 132 132 131 130 130 130 131 132 132
73 70 68 67 66 65 63 62 61 61 60 60 60 59 59 58 56 55 55 54 54 54 54 55 55 55 57 58 61 63 66 69 71 72 74 76 78 80 82 83 84 86 88 89 91 93 94 95 95 96 98 100 102 105 108 110 111 112 113 116 118 119 120 121 121 121 123 124 125 126 128 130 131 132 133 133 132 132 132 131 130 131 132 133 133
74 72 70 68 66 65 63 62 61 60 60 60 60 60 60 59 58 56 55 53 53 53 54 54 55 55 55 55 57 60 63 66 68 70 71 73 75 77 79 80 81 83 84 86 88 90 92 93 93 93 93 95 97 100 104 106 107 109 110 111 112 113 116 117 117 118 120 122 124 124 125 127 128 130 131 132 132 132 132 131 131 131 132 133 134
76 74 72 70 68 66 64 62 60 60 59 59 59 59 59 59 58 57 56 54 53 53 54 54 55 54 54 54 56 57 60 62 65 67 68 70 72 74 75 77 78 80 81 83 85 87 88 89 90 91 91 92 93 95 98 100 102 104 106 107 107 108 110 112 113 114 116 118 121 123 123 124 125 126 128 129 130 131 131 131 131 131 132 133 134
76 74 73 70 69 67 65 63 61 59 58 57 58 58 58 58 57 56 56 55 54 54 54 54 54 54 53 54 55 56 58 60 62 63 65 67 69 70 72 74 75 77 79 81 82 83 84 86 87 88 89 90 91 91 92 94 97 100 102 103 103 103 105 106 108 110 112 114 117 119 121 121 122 123 125 126 128 129 130 131 131 131 132 133 133
76 74 72 70 68 66 65 63 61 59 57 56 56 56 56 56 56 55 55 54 54 54 54 54 53 53 53 54 55 56 57 58 59 61 62 64 65 67 69 70 72 74 76 78 80 81 82 83 84 85 86 88 89 90 89 89 91 94 97 98 99 99 100 101 103 105 108 110 112 115 116 118 119 120 121 123 124 126 127 128 129 130 131 132 133
76 75 73 71 69 67 65 64 61 59 57 56 55 55 54 54 54 54 53 52 52 53 53 53 53 52 53 53 54 55 56 56 57 58 60 61 63 65 66 67 69 71 73 74 76 78 80 81 82 83 84 86 87 88 88 88 88 88 90 92 94 96 96 97 98 101 104 106 109 110 112 114 116 117 119 121 123 125 125 126 127 128 129 130 132
77 75 73 71 70 69 67 65 62 60 58 56 55 55 54 54 53 52 52 52 51 51 51 52 52 51 52 53 54 54 55 55 55 56 58 59 61 62 63 64 66 68 70 71 72 75 77 79 80 81 82 83 85 86 86 86 86 86 85 86 88 91 93 93 95 97 100 103 105 107 108 110 113 116 119 122 124 124 125 125 125 126 128 129 130
78 77 74 71 70 69 67 66 64 61 59 57 56 55 55 54 53 51 51 50 50 50 50 51 51 51 51 52 53 54 54 54 54 55 56 58 59 59 60 61 63 65 67 68 69 71 74 76 77 79 80 81 83 84 84 84 84 84 83 82 82 84 87 89 92 94 96 98 100 102 105 107 110 114 118 122 123 124 124 124 124 125 126 126 127
78 77 76 73 70 69 67 66 64 62 60 58 57 57 56 54 53 51 50 50 49 49 49 50 50 50 50 51 52 53 53 53 53 53 55 56 57 58 58 59 60 62 64 65 66 67 70 72 73 75 78 79 80 81 81 81 81 82 81 80 80 80 81 84 87 90 92 95 96 99 102 105 108 111 115 119 121 122 123 123 124 124 124 124 125
77 76 75 73 71 70 68 66 64 62 60 59 58 57 56 54 53 52 50 49 48 48 48 48 48 49 49 50 51 52 53 53 52 53 54 54 55 56 57 57 58 59 61 61 62 64 66 68 69 71 74 76 78 79 79 78 79 79 79 78 78 79 79 81 83 86 89 92 95 97 101 104 106 108 111 115 118 121 122 123 123 124 124 124 126
77 76 75 73 71 70 69 67 65 62 61 59 58 57 55 53 52 52 51 50 49 48 47 47 47 47 48 48 50 51 52 52 52 52 53 53 53 54 56 56 56 57 58 59 59 61 63 65 65 67 70 72 74 75 76 76 76 76 77 76 76 77 77 78 79 81 84 89 93 96 99 102 103 105 107 110 114 118 120 121 122 123 124 125 127
77 76 75 73 71 70 69 67 65 63 61 59 58 57 55 53 51 51 51 51 50 49 48 47 46 46 46 47 48 49 50 51 52 52 52 52 52 53 54 55 55 56 57 57 57 59 60 62 62 64 66 69 70 72 73 74 74 74 74 74 74 75 75 75 77 78 81 85 90 93 96 99 101 102 104 107 110 113 116 118 120 121 123 125 127
77 76 75 73 71 69 68 67 65 63 61 60 57 56 55 54 52 51 51 51 51 50 49 48 47 46 45 45 46 47 48 49 50 50 51 51 52 52 53 53 53 55 55 55 56 57 58 59 60 61 63 65 67 68 69 70 71 71 71 71 71 72 73 74 75 77 79 82 86 90 94 97 99 100 102 104 106 108 111 114 116 119 122 124 126
77 76 75 74 72 70 69 67 65 64 62 60 57 56 55 54 52 52 51 51 51 50 49 48 48 47 46 45 45 45 46 47 47 48 48 49 50 51 52 52 52 53 54 54 54 55 56 57 58 58 60 62 64 64 65 66 67 68 68 69 69 70 71 73 74 76 78 80 84 88 92 95 96 97 98 100 102 104 106 108 111 114 118 121 123
76 76 75 74 72 71 69 67 66 64 62 60 58 56 54 53 52 51 51 50 50 49 49 48 48 47 46 46 45 45 45 45 45 45 46 47 48 49 50 50 50 51 52 52 53 54 55 56 56 57 57 59 61 62 62 62 63 64 65 66 67 68 69 71 73 75 77 79 82 86 90 92 93 93 94 96 98 100 102 104 107 110 112 116 119
76 76 75 74 72 71 70 68 66 64 62 60 58 56 55 53 52 51 50 49 49 48 48 47 47 47 46 45 45 45 44 44 44 44 44 45 46 47 47 47 48 49 50 50 51 52 54 54 55 55 56 56 58 59 59 59 60 61 62 63 64 66 67 69 72 74 76 78 80 84 87 89 90 90 91 94 96 98 100 102 104 106 108 111 113
76 76 75 74 72 70 69 68 66 64 62 60 58 57 55 53 52 51 50 49 48 47 47 46 46 46 45 45 44 44 44 44 43 43 43 43 44 46 46 45 45 47 48 48 49 50 52 53 53 54 54 55 56 57 57 57 57 58 60 61 62 63 64 66 69 71 73 76 78 81 83 85 87 87 89 90 93 95 97 99 100 102 104 107 110
76 75 75 73 72 70 69 68 66 64 61 60 58 57 55 53 52 51 50 50 49 47 46 46 45 45 44 44 44 44 44 43 43 42 42 43 43 45 45 44 44 44 45 46 47 49 50 51 51 52 53 54 55 55 55 55 55 56 57 58 59 60 61 64 66 68 71 73 75 77 80 82 84 85 86 88 90 92 94 95 97 99 101 103 106
76 75 74 73 72 70 68 67 66 64 61 59 58 56 55 53 52 51 50 49 49 48 46 45 44 44 44 43 43 43 43 43 43 42 42 42 42 44 45 45 43 43 44 44 45 46 48 49 49 50 52 53 54 53 53 54 54 55 55 56 57 58 59 61 64 66 68 70 72 74 76 78 80 82 84 85 87 88 90 92 94 96 98 100 102
75 75 74 73 71 70 68 67 65 63 61 59 57 56 55 53 52 51 50 49 49 48 47 45 44 43 43 43 43 42 42 43 43 42 42 41 41 42 45 46 44 43 43 44 44 44 45 47 48 48 50 52 53 52 52 53 53 53 53 54 54 56 58 60 62 64 65 67 68 70 72 75 77 79 81 83 84 86 88 90 91 93 95 97 98
Wind_Direction
283 282 282 281 280 280 279 278 278 276 275 273 271 269 268 266 265 263 261 258 257 256 257 258 258 258 257 255 254 253 253 252 250 249 248 247 246 245 245 245 245 245 245 245 245 244 244 244 244 245 245 245 245 244 244 244 244 244 244 243 243 242 243 242 242 243 243 242 240 239 239 239 240 241 242 242 243 243 242 240 237 235 235 236 236
284 283 282 281 280 279 278 276 276 275 274 273 272 271 269 267 265 264 262 260 257 256 255 255 256 257 257 256 255 253 252 252 251 250 248 247 247 246 245 245 245 245 244 244 245 245 245 244 244 244 245 245 245 245 245 245 245 246 245 244 243 243 243 242 242 242 243 243 242 240 239 239 240 240 241 241 241 242 243 241 239 235 234 235 235
285 284 283 281 280 279 277 276 275 273 272 271 270 270 269 267 266 264 262 260 258 256 254 253 253 254 255 255 255 254 253 251 251 251 249 248 247 247 246 245 245 245 244 244 244 245 245 245 245 245 245 245 245 245 246 246 246 246 246 244 243 243 243 242 242 242 242 243 242 241 240 239 239 240 240 240 240 240 240 241 240 238 235 234 235
287 286 285 283 282 280 279 277 276 274 273 271 269 268 267 266 265 264 263 261 259 257 255 253 252 251 252 253 254 254 254 252 251 250 250 249 247 247 247 247 246 245 244 244 244 245 245 246 246 246 246 246 246 246 246 246 246 246 246 245 243 243 242 242 242 241 241 241 242 242 241 239 239 239 239 239 239 239 239 240 241 240 238 237 235
287 286 285 284 283 281 280 278 277 275 273 272 270 268 267 265 264 263 262 261 259 258 256 254 252 250 250 250 250 252 253 253 252 250 250 249 248 247 246 247 247 246 245 244 243 244 245 246 246 247 247 247 247 247 247 247 246 246 247 246 245 243 242 242 241 241 241 241 241 241 241 240 239 239 239 239 239 239 239 239 239 240 240 239 238
287 286 285 284 283 281 279 278 276 275 274 272 271 269 267 266 264 263 261 260 259 258 256 254 253 251 249 248 248 248 249 250 251 251 250 249 248 247 246 246 246 246 246 244 243 244 245 245 246 246 246 247 248 248 247 247 247 247 246 247 246 245 244 242 242 241 241 241 240 240 240 240 239 239 239 239 239 239 239 239 239 239 239 240 240
289 287 286 285 283 282 280 278 277 275 274 272 270 269 267 266 264 263 261 260 259 258 256 255 253 252 250 249 247 246 246 247 248 249 250 250 249 248 247 246 245 246 246 245 244 243 244 245 245 246 246 246 247 247 248 247 248 248 247 247 247 246 246 245 243 242 241 241 241 240 239 239 239 239 239 239 239 239 239 239 239 239 239 239 240
289 288 287 285 284 282 281 279 277 275 274 272 270 268 267 265 264 263 262 260 259 258 257 255 254 253 251 249 248 246 245 245 245 246 247 248 249 248 248 247 246 245 246 246 245 243 243 244 245 245 245 246 246 247 247 247 248 248 248 248 248 247 246 246 245 244 242 241 241 241 240 239 239 239 239 239 239 239 239 240 240 240 239 239 240
290 289 287 286 284 283 281 280 278 276 274 272 270 268 267 265 263 262 261 260 259 258 257 256 255 253 252 250 249 247 246 245 244 244 244 245 247 248 248 247 246 246 245 245 245 244 243 243 244 245 245 245 246 246 247 247 248 248 249 249 249 249 247 246 246 245 244 242 241 240 240 239 239 239 239 239 239 238 239 239 240 240 240 239 239
290 288 287 286 284 282 280 278 277 275 274 273 271 269 268 266 264 262 260 259 258 257 257 256 255 254 253 251 250 248 247 246 245 244 244 243 244 245 246 247 246 246 246 245 245 244 243 242 243 244 245 245 245 246 246 247 247 248 248 249 249 249 249 247 246 246 245 244 243 241 240 240 239 239 239 239 239 238 238 238 239 239 240 240 240
289 288 286 285 283 281 279 277 276 274 273 272 271 270 269 267 265 263 261 259 257 256 256 255 254 254 253 252 251 249 248 247 246 245 244 243 243 243 244 245 246 246 245 245 245 244 243 243 242 242 244 245 245 245 246 246 247 247 248 248 249 249 249 249 248 246 245 245 244 243 241 240 240 239 239 238 238 238 238 238 239 239 239 240 241
291 289 288 286 284 282 280 278 276 274 272 271 269 268 267 266 265 264 262 260 257 256 255 254 254 253 253 252 252 251 249 248 247 245 245 244 243 243 243 243 244 245 245 245 245 244 244 243 242 242 242 244 245 245 245 245 246 247 248 248 248 248 248 249 249 248 246 245 245 245 243 241 240 239 239 239 238 238 238 238 238 239 239 239 240
294 292 291 288 286 283 282 280 278 276 274 271 269 268 266 265 264 263 262 261 259 257 255 254 253 252 252 252 251 251 250 249 248 247 246 245 244 244 243 243 243 243 244 245 245 245 244 244 243 242 242 242 243 244 245 245 245 246 247 247 248 248 247 248 248 248 248 247 246 245 245 243 241 240 240 239 239 238 238 238 238 238 239 239 239
295 294 292 289 287 285 282 280 279 277 275 273 270 268 266 264 263 262 262 261 260 258 256 255 253 252 251 250 250 250 250 249 249 248 247 246 245 244 244 243 243 243 243 244 244 245 244 244 244 243 242 242 242 243 244 244 245 245 246 246 247 247 247 247 248 248 248 247 246 246 245 245 243 241 240 240 240 239 239 239 238 238 238 239 239
295 294 292 290 287 285 282 280 279 277 275 274 271 269 267 265 264 262 261 260 260 259 258 256 254 253 251 250 249 249 249 249 249 248 248 247 246 245 245 244 244 243 243 243 244 244 244 244 244 244 244 243 242 242 242 243 244 244 245 245 246 246 246 247 247 248 248 248 247 246 245 245 245 244 242 241 241 240 239 239 239 239 239 239 239
297 295 293 291 288 285 282 279 277 276 275 274 273 271 269 267 265 264 262 261 260 259 258 257 256 254 253 251 250 249 249 248 248 248 247 247 247 246 245 245 244 244 244 244 244 244 244 244 244 245 245 245 244 243 242 241 242 243 244 244 244 245 246 246 246 247 248 248 248 247 246 245 245 245 244 243 242 241 240 240 240 240 240 239 239
300 298 296 293 291 287 284 281 277 275 273 273 272 272 271 269 267 265 263 261 260 259 258 258 257 256 255 253 252 250 249 248 248 247 247 247 247 246 246 245 245 244 244 244 244 245 245 244 244 245 246 246 246 245 244 243 241 241 243 244 244 244 244 245 245 246 247 248 248 247 247 246 245 244 244 244 244 243 242 241 241 241 241 240 240
303 301 299 297 294 291 288 285 281 278 275 272 271 270 270 269 268 266 264 262 260 259 259 258 257 256 256 254 253 252 251 249 248 247 247 247 247 246 246 245 245 245 244 244 244 244 245 245 245 245 245 246 247 247 247 246 244 242 241 242 243 244 244 244 244 245 245 247 247 248 247 247 246 245 244 244 244 244 244 243 241 241 241 241 241
305 304 302 299 296 293 291 288 285 282 279 276 273 271 270 269 269 268 266 264 261 259 258 258 258 257 256 255 254 253 252 251 250 249 247 247 246 246 246 246 246 245 244 244 244 244 244 245 245 245 245 246 247 247 247 247 248 246 243 241 242 243 244 244 244 244 244 245 246 247 247 247 247 246 245 244 243 244 244 244 243 242 242 241 241
308 306 304 302 299 296 293 291 288 285 282 279 276 274 271 269 268 268 267 266 264 261 259 258 257 258 258 257 256 255 253 252 252 251 249 248 247 247 246 246 245 245 245 244 244 243 243 243 243 244 244 245 246 247 246 246 247 248 247 244 242 242 243 244 244 244 244 244 245 246 246 246 246 246 246 245 244 243 243 244 244 244 243 242 242
309 308 306 304 301 298 295 293 290 287 284 281 278 276 273 271 269 267 266 265 265 264 262 260 258 257 257 257 257 256 256 254 253 252 251 250 249 248 247 246 246 245 245 245 245 244 244 243 243 243 243 244 245 246 246 246 246 247 248 248 245 243 242 243 244 244 244 243 243 244 245 245 245 246 246 245 245 244 243 243 244 244 244 244 244
310 309 307 305 303 300 297 294 291 289 286 284 281 278 275 273 271 269 267 265 264 263 263 262 260 259 258 257 257 257 257 256 255 254 254 253 251 250 250 249 248 247 247 247 246 246 246 245 244 243 243 243 243 244 245 246 246 246 247 248 248 245 243 242 243 244 244 243 243 243 244 244 244 245 245 245 245 245 244 243 243 243 244 245 245
312 310 309 307 304 301 298 295 293 290 288 285 283 281 278 275 273 270 268 267 265 264 263 262 261 261 259 259 258 257 257 257 256 256 255 255 254 253 252 251 250 249 249 248 248 247 247 247 246 246 245 244 243 243 244 245 245 245 246 247 248 247 245 243 243 243 243 243 243 243 243 243 244 244 244 244 244 245 244 244 243 243 243 244 245
313 312 311 309 307 304 301 298 295 292 290 287 284 282 280 278 275 272 270 268 266 265 263 262 261 260 260 260 259 258 257 257 256 256 255 255 255 254 253 253 252 251 251 250 249 248 248 248 248 247 247 246 246 245 245 245 245 245 245 246 247 248 247 245 243 243 242 242 243 243 243 243 243 243 243 243 243 244 244 244 243 243 243 243 243
315 314 312 311 309 307 304 302 299 296 293 290 286 283 281 278 276 274 272 270 268 266 264 263 262 261 260 260 259 259 258 257 257 256 255 255 255 254 254 253 252 252 252 252 251 251 249 249 248 248 248 248 248 247 247 246 246 246 246 246 246 247 247 247 245 244 243 241 241 242 243 243 243 243 243 243 243 243 243 244 244 243 243 242 242
316 314 313 311 309 307 305 304 302 299 297 293 290 286 282 279 276 274 272 271 269 268 266 264 263 262 261 260 260 259 259 259 258 257 256 255 254 254 253 253 252 251 251 251 252 252 251 250 249 249 249 249 248 248 248 248 248 248 248 247 247 247 247 247 246 245 244 242 241 240 241 242 243 243 243 243 242 242 242 243 243 243 243 242 242
316 314 313 311 310 308 306 305 303 302 300 297 294 290 285 281 278 275 273 271 270 269 268 266 265 263 262 261 261 260 260 259 259 258 258 257 255 254 253 253 252 252 251 251 251 251 251 251 251 250 249 249 249 249 249 248 248 248 248 248 248 248 247 247 247 246 246 245 242 240 240 241 242 242 242 242 242 242 242 242 242 243 243 243 242
317 315 313 312 311 309 308 306 305 303 301 299 296 293 289 285 281 278 275 273 271 270 269 268 266 265 263 262 261 260 259 258 258 258 258 257 257 256 255 254 253 252 252 251 251 251 251 251 251 251 250 250 249 249 249 249 249 248 248 248 248 248 248 247 247 247 246 246 245 242 241 240 241 242 241 241 241 242 242 242 241 242 242 242 242
318 316 314 312 311 309 308 307 306 304 302 300 297 294 291 288 285 282 279 277 275 272 270 268 267 265 264 262 261 260 259 258 258 258 257 257 257 256 256 256 255 254 253 252 252 252 251 252 252 252 251 251 250 250 249 249 248 248 248 248 248 248 247 247 247 246 246 246 246 245 243 241 241 241 241 241 241 241 241 241 241 241 241 242 242
320 318 316 314 313 311 310 309 308 307 305 302 299 296 293 290 287 285 283 281 278 275 272 270 268 266 264 263 261 260 259 259 258 258 257 257 257 256 256 256 256 256 255 254 254 253 252 252 252 252 252 252 251 251 250 249 248 248 248 248 247 247 247 247 246 246 246 245 245 245 244 243 242 241 241 241 241 240 240 240 241 241 241 241 241
321 320 319 317 316 314 313 312 311 309 307 305 302 298 295 292 289 287 286 284 282 279 276 272 269 267 265 264 262 261 260 259 258 258 257 257 257 257 256 256 256 256 256 256 255 255 254 253 252 252 252 251 251 251 251 250 249 248 247 247 247 247 247 247 246 246 246 246 245 245 245 244 243 242 241 241 241 241 240 240 240 240 241 241 241
322 321 320 319 317 316 315 313 312 310 308 306 304 301 298 295 292 290 288 287 285 282 280 276 273 269 266 265 264 263 261 260 259 258 258 257 257 257 257 256 256 256 255 255 255 255 255 255 253 252 251 251 251 250 250 250 250 249 248 247 246 246 246 246 246 246 246 246 246 245 245 245 244 243 243 242 241 240 240 240 240 240 240 241 241
323 322 322 321 319 317 315 314 313 311 309 307 305 302 300 298 296 294 292 290 288 285 282 279 276 273 270 267 265 263 262 261 261 260 259 258 257 257 257 256 256 255 255 255 255 255 255 255 255 254 253 251 250 250 250 250 250 249 249 248 247 246 246 246 245 245 245 245 245 246 245 245 245 245 244 243 242 241 241 240 240 240 240 240 241
324 324 323 322 320 318 316 315 314 312 310 308 305 303 300 299 297 296 295 293 290 288 285 281 279 276 274 271 268 265 263 262 261 260 260 259 258 257 257 257 257 256 256 255 255 255 255 255 255 255 254 253 252 250 249 249 249 249 249 249 248 247 246 245 245 244 244 244 244 245 245 245 245 245 245 244 244 243 242 241 240 240 240 240 241
324 324 323 322 320 318 317 316 315 313 311 308 305 303 301 299 297 297 295 294 292 290 286 284 281 279 277 274 271 268 266 264 263 262 261 260 259 258 257 257 257 256 256 256 256 256 255 255 255 255 255 254 254 252 250 249 249 249 249 249 248 247 246 245 244 244 243 243 243 243 243 244 244 244 245 245 244 244 243 242 242 241 240 240 241
323 323 322 321 320 318 317 316 315 314 311 309 306 303 301 299 297 296 295 294 293 291 288 286 284 282 279 277 274 271 269 266 265 263 262 261 260 259 258 257 257 256 256 256 256 256 256 256 255 255 255 254 254 254 252 250 248 248 248 248 248 248 247 246 245 244 243 243 242 242 242 242 242 243 244 245 245 245 244 244 243 243 241 241 241
323 323 322 322 321 319 318 317 316 314 313 310 308 305 302 300 298 297 296 294 293 291 290 288 286 283 281 279 277 274 272 270 268 266 264 262 261 260 259 258 257 256 255 255 256 256 256 256 255 255 255 254 254 254 254 253 251 249 247 247 248 248 247 246 245 244 243 243 242 241 241 241 241 242 242 243 244 244 244 244 244 244 243 242 242
324 323 323 322 322 320 319 318 317 316 315 313 310 307 304 302 300 298 297 296 295 293 291 289 287 284 282 281 279 276 274 272 270 268 266 265 263 261 260 259 258 258 257 255 255 255 255 255 255 255 255 254 254 254 253 253 253 251 249 247 246 247 247 247 245 244 243 243 242 241 240 239 239 240 240 241 242 242 243 243 243 243 243 243 243
324 324 323 323 322 321 320 319 318 317 316 314 312 310 307 304 302 300 299 298 296 295 293 290 288 285 283 281 280 278 276 274 272 270 268 267 265 264 262 260 259 259 258 257 255 254 254 254 254 255 255 254 254 254 254 253 253 252 251 250 248 246 246 246 246 245 243 243 242 242 241 239 238 238 238 239 239 240 240 241 241 242 242 243 243
325 324 323 323 322 321 320 319 318 318 317 316 315 312 309 306 304 302 301 299 298 296 294 291 289 287 285 283 281 280 278 277 274 272 270 269 267 266 264 262 260 259 259 258 256 255 254 254 253 253 254 254 254 254 254 254 253 253 252 251 249 247 246 244 244 244 244 243 242 241 241 240 239 237 237 238 238 239 239 239 240 240 241 242 242
324 324 323 323 322 321 321 319 319 319 318 317 315 312 309 307 306 304 303 301 299 297 294 292 289 287 286 284 282 281 280 278 276 274 272 270 269 268 266 264 262 261 260 259 258 256 255 254 253 252 252 253 253 254 254 253 253 253 252 251 249 248 246 244 242 241 242 242 241 240 240 240 239 238 237 237 237 238 238 238 239 239 240 240 241
324 323 323 323 322 322 321 320 320 320 319 317 315 312 310 308 307 306 305 303 301 299 296 293 290 287 286 284 283 282 280 279 277 275 273 272 270 268 267 266 264 263 261 260 259 258 257 256 254 253 252 252 252 253 253 253 252 252 252 251 250 248 246 245 242 240 239 240 240 240 239 239 239 238 238 237 237 237 237 238 238 239 239 239 240
324 323 323 322 322 322 321 321 320 320 319 317 315 313 311 310 309 307 306 304 303 301 298 294 291 288 286 284 282 281 280 279 278 276 275 273 271 269 268 267 266 264 263 261 260 259 258 257 256 254 253 252 252 252 252 252 252 252 251 251 250 249 247 245 243 241 238 238 238 239 239 239 239 238 238 237 237 237 237 237 237 238 238 239 239
324 323 323 322 323 322 322 321 321 320 319 318 316 315 313 312 311 309 307 306 304 302 299 297 294 291 288 285 283 281 280 278 277 276 275 273 272 270 269 268 267 266 264 263 262 260 259 258 257 255 254 253 252 251 251 251 251 251 251 250 249 248 246 244 242 240 238 237 237 237 238 239 238 238 237 237 237 237 237 237 237 237 237 238 239
324 324 323 323 323 323 322 322 321 320 319 318 317 316 314 313 311 310 308 306 305 303 300 298 296 293 291 288 286 283 281 279 277 276 274 273 272 271 270 269 268 267 266 265 263 262 260 259 258 256 255 254 253 252 251 250 250 250 250 249 248 246 245 243 241 240 238 237 236 236 237 237 238 238 238 238 238 238 238 238 237 237 237 238 238
324 324 324 323 324 324 323 322 322 321 320 319 317 316 314 313 312 310 308 306 304 302 301 298 297 295 293 291 288 285 283 280 278 276 275 273 272 271 270 270 269 268 266 265 264 263 262 261 259 257 255 254 254 253 251 250 250 249 249 248 247 245 243 242 241 240 239 237 236 236 236 237 237 237 237 238 238 238 238 239 239 238 238 238 238
325 325 324 324 324 324 323 323 322 321 320 319 318 317 315 314 312 310 308 306 304 302 300 298 297 295 293 291 289 287 284 282 280 278 276 274 273 271 270 269 269 268 268 266 265 264 263 262 260 259 257 255 254 253 252 251 250 249 248 247 246 244 243 241 240 239 239 238 237 237 237 237 237 237 237 237 237 237 237 238 238 239 239 239 239
326 325 325 324 324 324 323 323 322 321 321 320 318 317 316 314 313 311 309 307 305 303 301 298 296 295 293 292 290 287 285 283 281 280 278 276 274 273 271 270 269 268 268 267 266 264 263 262 261 260 259 257 255 253 252 251 250 249 248 247 246 244 243 242 241 240 239 239 239 238 238 238 238 238 237 237 237 237 237 237 238 238 239 240 240
326 325 325 324 324 324 324 323 322 322 321 320 319 317 316 314 313 311 309 308 306 304 302 299 297 295 293 292 290 288 286 284 282 280 279 277 276 275 274 272 270 269 268 267 266 266 264 263 262 261 260 259 257 255 253 252 250 249 248 247 246 245 243 242 241 240 239 239 239 239 239 239 239 239 238 238 237 238 238 238 238 238 238 239 240
326 326 325 325 325 324 324 323 322 322 321 320 319 317 316 314 313 311 310 308 306 304 302 300 298 296 294 292 290 288 286 284 283 281 279 278 276 276 275 274 272 270 269 267 266 265 265 264 262 261 260 260 258 256 254 253 251 249 248 247 246 245 244 242 241 240 239 239 239 239 239 239 239 239 239 238 238 238 238 238 238 238 238 239 239
327 326 325 325 325 325 324 324 322 322 321 320 319 317 316 315 313 312 310 309 307 305 303 301 299 297 295 293 291 289 287 285 283 282 280 278 276 275 275 275 273 271 270 269 267 265 264 264 263 262 261 260 260 258 256 254 252 250 248 247 246 245 244 243 242 241 240 239 239 239 239 239 239 239 239 239 239 238 238 238 238 238 238 239 239
Height
10383 10380 10377 10374 10372 10369 10367 10365 10364 10363 10363 10363 10364 10365 10365 10365 10366 10368 10370 10372 10373 10374 10372 10371 10370 10370 10372 10374 10376 10377 10378 10381 10382 10384 10386 10387 10388 10389 10389 10391 10393 10395 10398 10401 10403 10404 10405 10406 10408 10410 10411 10415 10418 10418 10419 10421 10422 10425 10432 10438 10441 10443 10447 10452 10456 10459 10463 10468 10474 10478 10481 10485 10489 10494 10499 10503 10506 10509 10511 10514 10516 10519 10521 10525 10529
10367 10365 10363 10360 10357 10355 10352 10350 10349 10347 10346 10345 10346 10347 10348 10349 10350 10351 10353 10355 10357 10359 10359 10358 10358 10357 10357 10358 10360 10363 10365 10366 10367 10369 10372 10374 10375 10376 10376 10377 10379 10381 10385 10388 10389 10390 10391 10393 10395 10397 10399 10402 10403 10404 10408 10411 10412 10414 10420 10427 10429 10431 10435 10439 10445 10450 10454 10458 10461 10465 10471 10477 10481 10485 10489 10493 10497 10499 10501 10503 10505 10507 10511 10514 10519
10350 10347 10345 10342 10340 10337 10334 10332 10331 10330 10329 10328 10328 10328 10328 10330 10331 10333 10335 10337 10340 10342 10344 10344 10344 10344 10344 10344 10345 10347 10350 10352 10353 10353 10356 10359 10361 10362 10362 10364 10365 10368 10372 10375 10376 10376 10378 10380 10383 10385 10388 10390 10391 10393 10396 10399 10401 10401 10405 10412 10416 10419 10423 10428 10434 10439 10442 10445 10448 10455 10462 10466 10471 10476 10480 10482 10484 10486 10488 10491 10495 10498 10502 10505 10509
10331 10328 10325 10323 10320 10318 10316 10314 10312 10311 10310 10310 10310 10310 10310 10310 10311 10313 10315 10317 10320 10323 10326 10328 10329 10330 10330 10330 10331 10332 10333 10336 10338 10339 10340 10343 10346 10348 10349 10350 10351 10354 10358 10362 10363 10364 10365 10368 10371 10373 10376 10378 10379 10382 10384 10387 10389 10389 10390 10395 10400 10405 10410 10415 10420 10424 10428 10432 10437 10443 10449 10454 10462 10467 10466 10467 10470 10474 10478 10482 10486 10490 10494 10497 10500
10314 10311 10308 10305 10302 10299 10297 10295 10293 10291 10291 10291 10291 10291 10292 10292 10292 10293 10294 10296 10299 10302 10306 10309 10311 10313 10315 10316 10317 10318 10318 10319 10321 10323 10324 10326 10329 10333 10335 10336 10336 10339 10343 10347 10350 10351 10353 10355 10358 10361 10364 10365 10366 10369 10373 10374 10376 10377 10377 10380 10385 10391 10396 10401 10405 10410 10415 10419 10424 10431 10437 10444 10451 10450 10449 10455 10460 10465 10469 10473 10477 10480 10484 10488 10491
10298 10294 10291 10287 10284 10281 10278 10276 10274 10273 10272 10272 10272 10272 10272 10273 10274 10274 10275 10276 10278 10281 10284 10288 10292 10294 10297 10300 10302 10303 10303 10304 10304 10305 10307 10310 10312 10316 10320 10321 10322 10323 10327 10332 10336 10338 10340 10342 10345 10348 10350 10352 10353 10356 10359 10360 10362 10364 10365 10367 10372 10377 10382 10387 10393 10398 10401 10405 10412 10419 10424 10431 10435 10434 10439 10446 10450 10453 10457 10461 10465 10469 10473 10476 10480
10280 10276 10272 10268 10265 10262 10259 10257 10256 10254 10253 10253 10252 10252 10252 10253 10255 10256 10257 10258 10259 10261 10264 10267 10271 10274 10278 10281 10284 10286 10287 10288 10288 10289 10290 10293 10295 10299 10302 10305 10307 10309 10311 10316 10321 10325 10326 10328 10331 10334 10337 10339 10340 10342 10344 10347 10349 10350 10352 10354 10358 10364 10369 10376 10381 10384 10387 10393 10399 10403 10409 10416 10420 10422 10428 10433 10436 10442 10446 10449 10454 10458 10462 10465 10469
10262 10259 10255 10251 10247 10244 10241 10238 10237 10235 10234 10233 10232 10232 10232 10233 10235 10236 10238 10240 10241 10243 10244 10247 10250 10253 10257 10260 10264 10267 10270 10271 10272 10274 10275 10276 10278 10281 10284 10287 10291 10294 10296 10299 10305 10310 10312 10313 10316 10319 10322 10325 10326 10328 10331 10333 10336 10337 10339 10342 10345 10352 10359 10364 10366 10369 10376 10383 10385 10387 10394 10402 10406 10409 10415 10420 10425 10432 10434 10437 10442 10445 10449 10453 10455
10245 10241 10237 10233 10230 10226 10223 10220 10217 10215 10214 10213 10211 10211 10212 10214 10215 10217 10218 10221 10223 10224 10225 10227 10230 10232 10236 10239 10243 10247 10251 10253 10254 10257 10258 10260 10262 10264 10267 10269 10273 10278 10280 10283 10287 10292 10297 10299 10301 10304 10307 10310 10313 10315 10317 10320 10322 10324 10326 10329 10333 10339 10347 10350 10352 10356 10363 10369 10369 10373 10380 10386 10392 10398 10403 10408 10414 10419 10421 10424 10427 10428 10434 10438 10440
10230 10225 10220 10216 10213 10209 10205 10201 10199 10196 10194 10193 10192 10192 10193 10194 10195 10197 10199 10202 10203 10205 10206 10207 10210 10213 10216 10219 10223 10227 10231 10234 10237 10239 10241 10243 10246 10248 10249 10251 10255 10260 10263 10266 10270 10274 10280 10284 10287 10290 10291 10294 10298 10301 10304 10306 10308 10310 10313 10316 10321 10326 10331 10334 10339 10344 10348 10352 10355 10360 10366 10372 10379 10386 10390 10394 10399 10403 10406 10409 10411 10414 10421 10424 10424
10215 10211 10205 10201 10196 10190 10186 10183 10181 10179 10177 10175 10174 10174 10173 10173 10174 10176 10179 10182 10185 10185 10186 10188 10190 10193 10196 10199 10203 10207 10211 10214 10218 10220 10223 10225 10228 10231 10232 10234 10237 10242 10245 10248 10252 10256 10261 10266 10271 10275 10276 10278 10281 10285 10289 10291 10293 10296 10300 10303 10308 10313 10315 10317 10323 10328 10333 10338 10341 10345 10353 10359 10364 10370 10374 10377 10382 10388 10392 10396 10398 10402 10408 10410 10412
10199 10195 10190 10185 10180 10174 10169 10166 10164 10162 10160 10158 10157 10156 10155 10153 10153 10155 10157 10161 10164 10165 10166 10169 10171 10173 10176 10179 10182 10186 10191 10195 10198 10201 10204 10207 10210 10213 10215 10217 10220 10223 10226 10229 10233 10237 10242 10247 10253 10258 10260 10261 10264 10267 10272 10276 10279 10282 10285 10289 10293 10299 10302 10302 10306 10312 10318 10325 10328 10331 10337 10344 10349 10355 10358 10360 10366 10372 10376 10381 10385 10388 10394 10397 10399
10184 10179 10174 10169 10164 10160 10155 10151 10148 10145 10142 10141 10140 10139 10137 10135 10134 10136 10137 10139 10142 10144 10146 10149 10152 10155 10157 10159 10161 10165 10169 10174 10178 10181 10185 10188 10191 10194 10197 10200 10203 10206 10208 10211 10214 10218 10223 10228 10233 10238 10243 10245 10247 10250 10254 10259 10263 10267 10270 10274 10277 10283 10287 10288 10292 10297 10302 10309 10315 10317 10320 10327 10335 10341 10343 10345 10351 10356 10361 10367 10371 10374 10379 10383 10384
10169 10165 10159 10154 10150 10145 10141 10136 10132 10128 10125 10124 10123 10121 10119 10117 10117 10119 10120 10120 10121 10123 10126 10129 10132 10135 10137 10140 10141 10144 10148 10152 10156 10161 10165 10169 10172 10176 10179 10182 10186 10189 10191 10194 10196 10199 10204 10209 10213 10218 10223 10226 10229 10233 10237 10242 10246 10250 10254 10258 10261 10266 10271 10275 10278 10283 10287 10293 10299 10303 10306 10313 10320 10324 10327 10331 10335 10341 10347 10352 10355 10358 10363 10367 10371
10156 10152 10146 10140 10136 10132 10127 10122 10117 10113 10109 10107 10105 10104 10103 10101 10101 10103 10103 10103 10103 10104 10106 10109 10111 10114 10117 10120 10122 10124 10128 10131 10134 10139 10143 10148 10152 10156 10161 10164 10168 10171 10174 10177 10179 10181 10186 10191 10195 10198 10202 10207 10210 10215 10220 10224 10228 10233 10237 10241 10245 10249 10255 10260 10265 10268 10272 10277 10281 10286 10292 10298 10304 10308 10312 10317 10320 10325 10332 10336 10339 10343 10348 10354 10358
10143 10139 10133 10127 10122 10118 10114 10109 10104 10099 10095 10091 10089 10088 10088 10087 10087 10088 10088 10087 10086 10087 10088 10090 10092 10094 10097 10100 10103 10105 10108 10111 10114 10117 10121 10126 10130 10135 10140 10145 10149 10153 10157 10159 10162 10164 10168 10173 10177 10180 10182 10186 10191 10196 10201 10207 10211 10215 10219 10224 10229 10233 10238 10245 10251 10253 10256 10261 10265 10268 10274 10283 10290 10293 10296 10301 10305 10309 10315 10320 10324 10329 10334 10339 10344
10128 10123 10118 10113 10108 10103 10100 10096 10091 10087 10083 10079 10075 10073 10072 10072 10072 10073 10073 10072 10071 10071 10071 10072 10073 10075 10078 10080 10083 10085 10088 10091 10095 10098 10101 10105 10109 10113 10118 10124 10129 10134 10138 10142 10145 10146 10149 10155 10160 10162 10164 10166 10170 10175 10181 10187 10194 10199 10202 10206 10211 10216 10222 10228 10234 10239 10242 10244 10248 10252 10258 10266 10274 10277 10281 10287 10290 10293 10298 10305 10311 10315 10318 10323 10330
10112 10107 10102 10098 10094 10089 10085 10081 10077 10074 10070 10067 10063 10059 10057 10055 10055 10056 10057 10057 10057 10056 10055 10055 10055 10057 10059 10061 10064 10066 10068 10072 10076 10079 10082 10086 10089 10093 10097 10102 10107 10112 10118 10122 10126 10129 10132 10136 10141 10145 10147 10148 10151 10156 10161 10165 10172 10181 10186 10190 10194 10199 10205 10211 10217 10222 10227 10229 10231 10236 10242 10250 10256 10260 10265 10272 10275 10277 10281 10288 10295 10299 10301 10308 10316
10099 10094 10089 10083 10079 10075 10072 10068 10064 10060 10056 10053 10050 10048 10045 10042 10040 10040 10040 10040 10040 10041 10041 10040 10039 10040 10042 10043 10045 10047 10050 10053 10056 10060 10064 10068 10071 10073 10077 10082 10086 10091 10096 10100 10105 10109 10113 10117 10121 10126 10130 10131 10133 10137 10142 10145 10149 10157 10166 10173 10178 10182 10187 10194 10199 10205 10211 10215 10216 10220 10226 10233 10239 10242 10247 10254 10258 10263 10266 10271 10277 10282 10285 10292 10299
10088 10082 10077 10071 10066 10062 10058 10055 10051 10047 10043 10040 10037 10035 10032 10031 10029 10027 10025 10024 10023 10024 10025 10025 10025 10025 10026 10026 10028 10029 10032 10035 10038 10042 10046 10049 10052 10055 10058 10062 10066 10070 10073 10077 10081 10087 10091 10096 10101 10106 10110 10113 10115 10117 10123 10128 10130 10133 10140 10150 10159 10166 10170 10175 10181 10187 10194 10199 10202 10205 10210 10217 10222 10223 10228 10235 10241 10247 10252 10254 10259 10264 10268 10275 10282
10078 10071 10066 10060 10055 10050 10046 10042 10039 10035 10031 10027 10024 10022 10019 10017 10015 10014 10012 10010 10009 10008 10009 10010 10011 10011 10010 10010 10011 10013 10015 10018 10021 10024 10028 10031 10034 10037 10040 10043 10047 10050 10052 10055 10060 10065 10069 10075 10080 10085 10089 10093 10096 10098 10102 10109 10114 10115 10118 10124 10136 10146 10154 10158 10163 10169 10176 10181 10186 10190 10194 10200 10204 10206 10211 10217 10223 10230 10236 10240 10244 10249 10254 10260 10265
10066 10061 10055 10049 10043 10039 10034 10030 10027 10023 10019 10016 10012 10010 10007 10004 10002 10000 9998 9997 9995 9995 9994 9994 9995 9996 9996 9996 9996 9997 9999 10002 10005 10007 10010 10014 10017 10019 10022 10026 10029 10032 10034 10037 10041 10045 10049 10055 10059 10063 10068 10072 10076 10079 10083 10088 10095 10099 10101 10104 10112 10123 10133 10140 10146 10152 10157 10163 10169 10175 10180 10183 10186 10190 10195 10200 10205 10211 10218 10224 10230 10235 10240 10246 10249
10054 10049 10044 10039 10033 10028 10024 10019 10015 10012 10008 10004 10001 9998 9995 9992 9990 9987 9985 9983 9982 9981 9981 9980 9980 9981 9981 9982 9983 9983 9984 9986 9988 9991 9993 9996 9999 10003 10006 10009 10012 10015 10017 10020 10023 10026 10030 10035 10039 10043 10047 10051 10056 10060 10064 10068 10074 10081 10085 10087 10092 10100 10110 10120 10127 10134 10140 10145 10151 10158 10165 10167 10168 10172 10179 10184 10189 10194 10200 10207 10214 10220 10226 10231 10234
10041 10036 10031 10026 10021 10017 10012 10008 10004 10000 9997 9993 9990 9986 9983 9980 9977 9975 9973 9970 9968 9967 9967 9966 9966 9966 9966 9967 9968 9969 9970 9971 9973 9975 9977 9979 9982 9985 9989 9993 9995 9997 9998 10001 10005 10008 10012 10015 10019 10024 10027 10031 10036 10041 10046 10051 10056 10062 10067 10071 10074 10080 10088 10097 10106 10114 10122 10128 10134 10141 10148 10151 10151 10154 10163 10169 10173 10178 10183 10190 10197 10203 10209 10215 10218
10030 10024 10019 10014 10009 10004 10000 9996 9992 9989 9985 9982 9978 9975 9972 9969 9966 9963 9960 9958 9956 9954 9954 9952 9952 9952 9952 9952 9952 9953 9954 9956 9957 9959 9961 9963 9965 9968 9971 9974 9977 9979 9981 9982 9985 9989 9993 9997 10001 10005 10009 10012 10017 10022 10028 10034 10039 10044 10049 10055 10059 10063 10069 10076 10085 10092 10101 10110 10118 10124 10129 10133 10134 10138 10146 10153 10157 10162 10167 10172 10179 10185 10192 10199 10202
10022 10015 10009 10003 9999 9994 9989 9985 9980 9976 9973 9969 9966 9962 9959 9957 9954 9952 9949 9946 9943 9942 9941 9940 9939 9939 9938 9938 9938 9939 9940 9941 9941 9943 9946 9948 9950 9951 9953 9955 9957 9961 9963 9965 9966 9969 9973 9978 9983 9987 9991 9995 9999 10004 10010 10017 10022 10027 10032 10038 10043 10048 10052 10058 10065 10071 10079 10088 10098 10107 10111 10114 10117 10123 10131 10137 10141 10145 10150 10155 10162 10168 10175 10181 10184
10014 10007 10001 9994 9988 9983 9978 9974 9970 9965 9961 9957 9953 9950 9947 9944 9942 9940 9938 9935 9933 9931 9929 9929 9928 9927 9926 9925 9925 9926 9927 9927 9927 9927 9929 9931 9933 9935 9937 9938 9939 9942 9945 9947 9949 9952 9955 9959 9964 9969 9973 9978 9982 9986 9992 9998 10004 10008 10013 10019 10026 10032 10036 10041 10047 10052 10058 10066 10076 10087 10093 10095 10099 10106 10114 10120 10123 10127 10133 10139 10146 10152 10157 10162 10166
10007 10000 9993 9987 9980 9973 9967 9962 9958 9955 9951 9946 9941 9937 9934 9931 9929 9927 9925 9924 9923 9921 9919 9917 9916 9915 9914 9913 9913 9913 9913 9913 9913 9913 9913 9915 9917 9918 9920 9922 9923 9925 9928 9930 9932 9935 9938 9941 9945 9950 9954 9959 9964 9970 9975 9980 9985 9989 9994 10000 10006 10012 10018 10024 10030 10035 10040 10045 10054 10064 10073 10077 10081 10087 10095 10102 10106 10110 10115 10122 10130 10136 10140 10144 10148
9999 9992 9986 9980 9974 9967 9959 9953 9947 9943 9940 9935 9930 9926 9921 9918 9916 9914 9913 9912 9912 9910 9908 9906 9905 9903 9902 9901 9900 9900 9899 9899 9899 9899 9900 9901 9902 9903 9904 9905 9907 9909 9912 9914 9916 9919 9922 9925 9928 9932 9936 9941 9946 9952 9958 9962 9967 9971 9975 9980 9986 9991 9998 10005 10011 10016 10022 10028 10035 10043 10051 10058 10063 10068 10075 10082 10088 10094 10099 10105 10113 10119 10123 10127 10132
9989 9982 9976 9970 9964 9958 9952 9945 9938 9933 9928 9924 9919 9915 9910 9907 9904 9902 9901 9900 9900 9898 9897 9895 9893 9891 9890 9889 9888 9887 9886 9886 9886 9886 9886 9886 9887 9888 9890 9891 9892 9894 9895 9897 9900 9904 9907 9910 9913 9915 9919 9924 9928 9933 9938 9942 9947 9951 9955 9961 9966 9972 9977 9984 9992 9998 10004 10011 10017 10023 10031 10037 10043 10050 10057 10064 10070 10076 10082 10089 10096 10101 10105 10110 10115
9979 9971 9964 9958 9952 9947 9941 9935 9930 9924 9918 9913 9908 9904 9899 9896 9894 9891 9889 9888 9887 9886 9884 9883 9882 9880 9878 9877 9876 9875 9874 9874 9873 9873 9873 9873 9873 9874 9875 9877 9879 9880 9882 9883 9885 9887 9890 9894 9897 9899 9902 9907 9911 9915 9918 9921 9926 9931 9936 9941 9947 9954 9959 9965 9972 9980 9987 9993 9999 10005 10011 10017 10023 10031 10039 10046 10052 10058 10065 10072 10079 10084 10087 10092 10098
9971 9963 9956 9949 9943 9938 9932 9926 9921 9915 9910 9904 9898 9893 9888 9884 9883 9881 9879 9877 9875 9873 9872 9870 9869 9869 9867 9866 9864 9863 9862 9861 9861 9861 9861 9861 9861 9861 9862 9864 9866 9867 9868 9869 9870 9871 9873 9876 9880 9884 9887 9890 9894 9897 9899 9902 9906 9911 9916 9921 9928 9935 9941 9947 9954 9962 9969 9975 9980 9986 9993 9998 10004 10012 10019 10026 10033 10041 10048 10055 10062 10067 10070 10075 10080
9962 9954 9947 9941 9935 9929 9924 9918 9912 9907 9901 9895 9889 9883 9878 9873 9871 9869 9867 9866 9864 9861 9860 9858 9856 9856 9855 9855 9853 9851 9849 9848 9848 9848 9848 9848 9849 9849 9849 9851 9852 9854 9855 9856 9857 9857 9858 9860 9863 9868 9872 9875 9878 9880 9881 9885 9889 9893 9897 9902 9909 9917 9923 9929 9936 9943 9951 9957 9961 9967 9974 9980 9987 9993 10000 10008 10016 10024 10031 10037 10044 10050 10054 10059 10064
9953 9945 9937 9931 9925 9920 9915 9909 9904 9898 9893 9887 9881 9875 9869 9864 9861 9858 9855 9854 9852 9850 9848 9846 9844 9843 9843 9843 9841 9839 9838 9837 9836 9835 9835 9836 9836 9836 9837 9838 9839 9840 9841 9842 9843 9843 9845 9847 9849 9852 9855 9858 9861 9863 9866 9870 9874 9877 9880 9883 9890 9898 9905 9911 9918 9926 9933 9938 9943 9948 9955 9962 9969 9976 9982 9990 9998 10005 10012 10019 10026 10033 10038 10043 10048
9946 9938 9930 9923 9916 9910 9906 9900 9895 9890 9885 9879 9872 9867 9862 9856 9852 9849 9845 9842 9840 9838 9836 9834 9833 9832 9831 9830 9829 9827 9826 9825 9824 9824 9823 9823 9824 9824 9824 9825 9827 9827 9827 9827 9829 9830 9832 9833 9835 9837 9840 9842 9843 9846 9851 9855 9858 9861 9863 9866 9871 9879 9887 9893 9901 9908 9914 9919 9924 9929 9936 9944 9951 9958 9964 9971 9978 9985 9992 9999 10007 10015 10021 10027 10032
9938 9931 9924 9917 9910 9903 9897 9892 9887 9882 9877 9871 9864 9859 9854 9848 9844 9841 9837 9833 9830 9827 9825 9823 9822 9820 9819 9817 9816 9815 9814 9813 9812 9812 9812 9812 9812 9812 9812 9813 9814 9814 9813 9814 9815 9817 9818 9819 9821 9822 9825 9827 9827 9829 9834 9838 9842 9845 9848 9851 9856 9862 9869 9876 9884 9890 9895 9901 9906 9912 9919 9927 9934 9941 9948 9954 9960 9966 9973 9981 9988 9997 10004 10010 10016
9930 9923 9915 9907 9900 9893 9888 9883 9878 9873 9867 9862 9856 9850 9845 9840 9835 9832 9828 9825 9822 9818 9815 9813 9811 9809 9807 9805 9804 9802 9801 9801 9801 9801 9800 9800 9800 9799 9800 9801 9802 9801 9801 9803 9804 9804 9804 9805 9807 9809 9811 9812 9812 9814 9818 9821 9825 9829 9833 9837 9842 9846 9851 9859 9867 9873 9877 9882 9889 9895 9902 9910 9918 9926 9932 9936 9940 9945 9952 9961 9969 9978 9986 9992 9999
9920 9914 9907 9899 9890 9883 9877 9872 9868 9863 9857 9852 9847 9841 9836 9831 9827 9823 9819 9815 9812 9810 9807 9804 9801 9799 9796 9794 9792 9791 9790 9789 9789 9789 9788 9788 9787 9788 9788 9789 9789 9788 9789 9791 9792 9792 9791 9792 9794 9795 9798 9799 9798 9799 9803 9806 9809 9813 9818 9824 9829 9833 9837 9843 9850 9855 9859 9864 9870 9877 9885 9892 9900 9907 9912 9914 9917 9923 9931 9940 9950 9958 9965 9972 9981
9909 9902 9897 9891 9883 9875 9868 9863 9858 9854 9848 9842 9837 9831 9826 9822 9818 9814 9810 9806 9803 9800 9797 9794 9791 9789 9786 9784 9781 9780 9779 9778 9778 9777 9776 9776 9776 9776 9776 9777 9777 9776 9777 9778 9780 9780 9780 9780 9782 9783 9784 9785 9785 9786 9788 9792 9795 9798 9803 9810 9816 9820 9825 9830 9834 9839 9843 9848 9854 9861 9868 9874 9881 9886 9889 9891 9896 9903 9911 9920 9929 9937 9944 9954 9964
9902 9893 9886 9880 9874 9868 9861 9854 9850 9845 9838 9832 9827 9821 9817 9813 9809 9805 9801 9798 9795 9792 9788 9785 9782 9779 9777 9774 9772 9770 9769 9768 9767 9766 9765 9765 9765 9764 9764 9765 9765 9765 9765 9766 9768 9769 9768 9769 9771 9772 9771 9772 9773 9773 9776 9779 9782 9785 9789 9795 9801 9806 9811 9815 9818 9823 9828 9833 9839 9845 9849 9854 9860 9867 9871 9875 9881 9887 9894 9903 9910 9916 9927 9939 9948
9894 9886 9879 9872 9865 9859 9852 9846 9841 9836 9830 9824 9819 9813 9808 9804 9799 9795 9792 9789 9786 9783 9780 9777 9774 9770 9768 9765 9762 9760 9759 9758 9757 9756 9754 9754 9755 9753 9752 9753 9754 9754 9754 9755 9756 9757 9757 9757 9759 9760 9760 9760 9761 9762 9763 9767 9770 9772 9775 9780 9785 9790 9794 9798 9802 9808 9812 9816 9821 9825 9828 9832 9838 9846 9853 9859 9865 9871 9877 9885 9892 9900 9912 9921 9924
9885 9878 9871 9864 9858 9850 9843 9837 9831 9827 9822 9817 9811 9805 9800 9796 9791 9786 9781 9778 9776 9774 9771 9768 9765 9762 9759 9757 9754 9752 9749 9748 9746 9745 9744 9744 9744 9743 9741 9742 9742 9742 9743 9744 9745 9745 9745 9746 9748 9749 9748 9749 9750 9751 9752 9755 9758 9760 9762 9766 9770 9774 9778 9783 9788 9794 9798 9801 9804 9807 9811 9815 9821 9829 9836 9842 9848 9854 9860 9868 9877 9886 9894 9899 9901
9877 9870 9863 9857 9850 9843 9835 9829 9823 9818 9813 9808 9803 9797 9791 9787 9783 9777 9772 9768 9765 9763 9761 9759 9756 9754 9751 9748 9746 9744 9741 9739 9737 9736 9734 9733 9733 9733 9731 9731 9731 9731 9732 9733 9734 9734 9734 9734 9736 9737 9737 9737 9738 9740 9741 9743 9746 9748 9751 9754 9757 9760 9764 9770 9774 9778 9782 9785 9788 9791 9796 9800 9805 9812 9818 9824 9831 9837 9844 9852 9862 9870 9875 9878 9883
9868 9861 9854 9848 9842 9835 9828 9821 9815 9810 9805 9800 9795 9789 9782 9777 9773 9769 9764 9759 9756 9753 9751 9748 9746 9744 9741 9739 9737 9735 9733 9731 9728 9727 9725 9724 9723 9722 9721 9721 9721 9720 9720 9722 9723 9723 9723 9723 9725 9726 9726 9726 9727 9729 9731 9732 9735 9737 9740 9743 9745 9748 9751 9755 9759 9762 9766 9771 9774 9777 9780 9784 9788 9795 9802 9808 9815 9821 9828 9837 9845 9851 9856 9860 9866
9860 9852 9845 9838 9832 9826 9820 9813 9807 9801 9796 9791 9787 9782 9776 9770 9765 9761 9756 9752 9748 9744 9742 9739 9736 9734 9731 9729 9728 9726 9724 9722 9720 9718 9717 9715 9714 9712 9711 9711 9711 9710 9710 9711 9712 9712 9712 9713 9714 9715 9715 9715 9716 9717 9720 9721 9724 9726 9729 9731 9733 9735 9738 9741 9744 9747 9752 9756 9760 9763 9765 9768 9774 9781 9789 9796 9802 9808 9814 9822 9829 9834 9839 9844 9850
9852 9844 9837 9830 9823 9817 9811 9805 9799 9793 9788 9783 9778 9773 9768 9763 9758 9753 9748 9745 9741 9737 9733 9730 9727 9725 9722 9720 9718 9716 9715 9713 9711 9710 9708 9707 9705 9703 9702 9702 9701 9700 9700 9701 9701 9701 9701 9702 9702 9703 9705 9705 9705 9706 9709 9711 9713 9715 9717 9719 9721 9723 9725 9728 9730 9734 9737 9741 9744 9747 9751 9755 9761 9769 9776 9783 9789 9795 9801 9806 9812 9818 9824 9829 9835
9844 9836 9829 9822 9816 9809 9802 9796 9791 9785 9780 9774 9769 9764 9760 9755 9751 9746 9741 9737 9734 9730 9726 9723 9720 9717 9714 9711 9709 9707 9705 9704 9702 9701 9699 9698 9696 9695 9694 9693 9692 9691 9691 9691 9691 9691 9691 9691 9692 9692 9693 9694 9695 9696 9698 9700 9702 9703 9705 9707 9709 9711 9713 9716 9719 9722 9725 9728 9731 9734 9738 9744 9750 9757 9763 9768 9773 9778 9784 9790 9796 9803 9809 9814 9820
9837 9829 9821 9814 9808 9802 9795 9788 9782 9777 9772 9766 9761 9756 9751 9747 9743 9738 9733 9729 9726 9722 9719 9715 9712 9709 9706 9704 9701 9698 9696 9695 9694 9692 9691 9689 9688 9686 9685 9685 9684 9683 9682 9682 9682 9681 9681 9681 9681 9682 9683 9683 9684 9685 9687 9689 9691 9692 9694 9696 9698 9701 9703 9706 9708 9711 9713 9716 9720 9723 9728 9733 9739 9745 9750 9755 9759 9764 9769 9776 9783 9789 9794 9799 9804
9830 9822 9814 9807 9800 9794 9788 9781 9774 9769 9764 9759 9753 9748 9743 9739 9735 9730 9726 9721 9717 9714 9711 9708 9705 9702 9699 9696 9694 9691 9688 9686 9685 9684 9683 9681 9679 9677 9676 9676 9676 9674 9674 9674 9673 9672 9672 9672 9672 9673 9672 9672 9673 9675 9677 9679 9681 9682 9683 9686 9688 9690 9693 9695 9697 9699 9702 9705 9709 9713 9718 9723 9728 9733 9738 9743 9747 9752 9757 9763 9769 9775 9780 9785 9789
9822 9814 9806 9799 9792 9786 9780 9773 9767 9761 9756 9751 9745 9740 9736 9732 9727 9723 9718 9714 9710 9706 9704 9701 9697 9694 9691 9688 9686 9683 9681 9679 9677 9676 9675 9673 9672 9669 9667 9667 9667 9666 9665 9665 9665 9664 9663 9662 9663 9664 9663 9662 9663 9665 9667 9669 9670 9672 9674 9676 9678 9681 9683 9684 9686 9688 9691 9694 9698 9703 9708 9712 9716 9721 9725 9730 9735 9740 9745 9750 9755 9760 9766 9771 9776
9815 9807 9799 9792 9785 9778 9772 9766 9759 9753 9748 9743 9738 9733 9728 9724 9720 9715 9711 9706 9702 9698 9695 9693 9690 9687 9684 9681 9678 9676 9673 9671 9669 9668 9666 9666 9665 9662 9659 9657 9658 9658 9657 9656 9655 9655 9655 9654 9654 9655 9654 9653 9653 9655 9657 9658 9660 9662 9665 9667 9669 9671 9672 9673 9674 9678 9681 9685 9689 9694 9698 9702 9706 9710 9714 9718 9723 9728 9732 9736 9741 9747 9752 9757 9761